Year,Month,Day,Hour,Minute,Value (Times are PST for temperature in C)
2017,05,26,00,00,11.70
2017,05,26,00,01,11.80
2017,05,26,00,02,11.80
2017,05,26,00,03,11.80
2017,05,26,00,04,11.80
2017,05,26,00,05,11.80
2017,05,26,00,06,11.80
2017,05,26,00,07,11.80
2017,05,26,00,08,11.80
2017,05,26,00,09,11.80
2017,05,26,00,10,11.80
2017,05,26,00,11,11.80
2017,05,26,00,12,11.80
2017,05,26,00,13,11.80
2017,05,26,00,14,11.80
2017,05,26,00,15,11.80
2017,05,26,00,16,11.80
2017,05,26,00,17,11.80
2017,05,26,00,18,11.80
2017,05,26,00,19,11.80
2017,05,26,00,20,11.80
2017,05,26,00,21,11.80
2017,05,26,00,22,11.80
2017,05,26,00,23,11.80
2017,05,26,00,24,11.80
2017,05,26,00,25,11.80
2017,05,26,00,26,11.80
2017,05,26,00,27,11.80
2017,05,26,00,28,11.80
2017,05,26,00,29,11.80
2017,05,26,00,30,11.80
2017,05,26,00,31,11.80
2017,05,26,00,32,11.80
2017,05,26,00,33,11.80
2017,05,26,00,34,11.80
2017,05,26,00,35,11.80
2017,05,26,00,36,11.80
2017,05,26,00,37,11.80
2017,05,26,00,38,11.80
2017,05,26,00,39,11.80
2017,05,26,00,40,11.80
2017,05,26,00,41,11.80
2017,05,26,00,42,11.80
2017,05,26,00,43,11.80
2017,05,26,00,44,11.80
2017,05,26,00,45,11.90
2017,05,26,00,46,11.90
2017,05,26,00,47,11.90
2017,05,26,00,48,11.90
2017,05,26,00,49,11.90
2017,05,26,00,50,12.00
2017,05,26,00,51,12.00
2017,05,26,00,52,12.00
2017,05,26,00,53,12.00
2017,05,26,00,54,11.90
2017,05,26,00,55,11.90
2017,05,26,00,56,11.90
2017,05,26,00,57,11.90
2017,05,26,00,58,11.90
2017,05,26,00,59,11.90
2017,05,26,01,00,11.90
2017,05,26,01,01,11.80
2017,05,26,01,02,11.80
2017,05,26,01,03,11.80
2017,05,26,01,04,11.80
2017,05,26,01,05,11.80
2017,05,26,01,06,11.70
2017,05,26,01,07,11.70
2017,05,26,01,08,11.70
2017,05,26,01,09,11.60
2017,05,26,01,10,11.60
2017,05,26,01,11,11.50
2017,05,26,01,12,11.50
2017,05,26,01,13,11.40
2017,05,26,01,14,11.40
2017,05,26,01,15,11.40
2017,05,26,01,16,11.30
2017,05,26,01,17,11.30
2017,05,26,01,18,11.30
2017,05,26,01,19,11.30
2017,05,26,01,20,11.30
2017,05,26,01,21,11.20
2017,05,26,01,22,11.30
2017,05,26,01,23,11.30
2017,05,26,01,24,11.30
2017,05,26,01,25,11.30
2017,05,26,01,26,11.30
2017,05,26,01,27,11.30
2017,05,26,01,28,11.30
2017,05,26,01,29,11.40
2017,05,26,01,30,11.40
2017,05,26,01,31,11.40
2017,05,26,01,32,11.40
2017,05,26,01,33,11.40
2017,05,26,01,34,11.40
2017,05,26,01,35,11.40
2017,05,26,01,36,11.40
2017,05,26,01,37,11.40
2017,05,26,01,38,11.40
2017,05,26,01,39,11.30
2017,05,26,01,40,11.30
2017,05,26,01,41,11.30
2017,05,26,01,42,11.30
2017,05,26,01,43,11.30
2017,05,26,01,44,11.20
2017,05,26,01,45,11.20
2017,05,26,01,46,11.20
2017,05,26,01,47,11.20
2017,05,26,01,48,11.10
2017,05,26,01,49,11.10
2017,05,26,01,50,11.10
2017,05,26,01,51,11.10
2017,05,26,01,52,11.10
2017,05,26,01,53,11.10
2017,05,26,01,54,11.10
2017,05,26,01,55,11.10
2017,05,26,01,56,11.20
2017,05,26,01,57,11.20
2017,05,26,01,58,11.30
2017,05,26,01,59,11.40
2017,05,26,02,00,11.50
2017,05,26,02,01,11.60
2017,05,26,02,02,11.70
2017,05,26,02,03,11.70
2017,05,26,02,04,11.70
2017,05,26,02,05,11.70
2017,05,26,02,06,11.70
2017,05,26,02,07,11.60
2017,05,26,02,08,11.60
2017,05,26,02,09,11.60
2017,05,26,02,10,11.50
2017,05,26,02,11,11.50
2017,05,26,02,12,11.50
2017,05,26,02,13,11.40
2017,05,26,02,14,11.40
2017,05,26,02,15,11.40
2017,05,26,02,16,11.40
2017,05,26,02,17,11.30
2017,05,26,02,18,11.30
2017,05,26,02,19,11.30
2017,05,26,02,20,11.20
2017,05,26,02,21,11.20
2017,05,26,02,22,11.20
2017,05,26,02,23,11.20
2017,05,26,02,24,11.10
2017,05,26,02,25,11.10
2017,05,26,02,26,11.10
2017,05,26,02,27,11.10
2017,05,26,02,28,11.10
2017,05,26,02,29,11.10
2017,05,26,02,30,11.00
2017,05,26,02,31,11.00
2017,05,26,02,32,11.00
2017,05,26,02,33,11.00
2017,05,26,02,34,10.90
2017,05,26,02,35,10.90
2017,05,26,02,36,10.90
2017,05,26,02,37,10.90
2017,05,26,02,38,10.80
2017,05,26,02,39,10.80
2017,05,26,02,40,10.70
2017,05,26,02,41,10.70
2017,05,26,02,42,10.70
2017,05,26,02,43,10.60
2017,05,26,02,44,10.60
2017,05,26,02,45,10.60
2017,05,26,02,46,10.60
2017,05,26,02,47,10.50
2017,05,26,02,48,10.50
2017,05,26,02,49,10.50
2017,05,26,02,50,10.40
2017,05,26,02,51,10.40
2017,05,26,02,52,10.40
2017,05,26,02,53,10.30
2017,05,26,02,54,10.30
2017,05,26,02,55,10.30
2017,05,26,02,56,10.30
2017,05,26,02,57,10.20
2017,05,26,02,58,10.20
2017,05,26,02,59,10.20
2017,05,26,03,00,10.20
2017,05,26,03,01,10.20
2017,05,26,03,02,10.10
2017,05,26,03,03,10.10
2017,05,26,03,04,10.20
2017,05,26,03,05,10.20
2017,05,26,03,06,10.20
2017,05,26,03,07,10.10
2017,05,26,03,08,10.10
2017,05,26,03,09,10.10
2017,05,26,03,10,10.10
2017,05,26,03,11,10.10
2017,05,26,03,12,10.10
2017,05,26,03,13,10.10
2017,05,26,03,14,10.10
2017,05,26,03,15,10.10
2017,05,26,03,16,10.00
2017,05,26,03,17,10.00
2017,05,26,03,18,10.00
2017,05,26,03,19,10.00
2017,05,26,03,20,9.90
2017,05,26,03,21,9.90
2017,05,26,03,22,9.90
2017,05,26,03,23,9.90
2017,05,26,03,24,9.90
2017,05,26,03,25,9.90
2017,05,26,03,26,9.90
2017,05,26,03,27,9.90
2017,05,26,03,28,9.90
2017,05,26,03,29,9.90
2017,05,26,03,30,9.90
2017,05,26,03,31,9.80
2017,05,26,03,32,9.80
2017,05,26,03,33,9.80
2017,05,26,03,34,9.80
2017,05,26,03,35,9.80
2017,05,26,03,36,9.80
2017,05,26,03,37,9.80
2017,05,26,03,38,9.80
2017,05,26,03,39,9.80
2017,05,26,03,40,9.80
2017,05,26,03,41,9.80
2017,05,26,03,42,9.80
2017,05,26,03,43,9.80
2017,05,26,03,44,9.80
2017,05,26,03,45,9.80
2017,05,26,03,46,9.80
2017,05,26,03,47,9.80
2017,05,26,03,48,9.80
2017,05,26,03,49,9.80
2017,05,26,03,50,9.80
2017,05,26,03,51,9.80
2017,05,26,03,52,9.80
2017,05,26,03,53,9.80
2017,05,26,03,54,9.80
2017,05,26,03,55,9.80
2017,05,26,03,56,9.90
2017,05,26,03,57,9.90
2017,05,26,03,58,9.90
2017,05,26,03,59,9.90
2017,05,26,04,00,9.90
2017,05,26,04,01,9.90
2017,05,26,04,02,9.90
2017,05,26,04,03,9.90
2017,05,26,04,04,9.90
2017,05,26,04,05,9.90
2017,05,26,04,06,9.90
2017,05,26,04,07,9.90
2017,05,26,04,08,9.90
2017,05,26,04,09,9.80
2017,05,26,04,10,9.80
2017,05,26,04,11,9.80
2017,05,26,04,12,9.80
2017,05,26,04,13,9.80
2017,05,26,04,14,9.70
2017,05,26,04,15,9.70
2017,05,26,04,16,9.70
2017,05,26,04,17,9.70
2017,05,26,04,18,9.70
2017,05,26,04,19,9.70
2017,05,26,04,20,9.70
2017,05,26,04,21,9.70
2017,05,26,04,22,9.70
2017,05,26,04,23,9.70
2017,05,26,04,24,9.70
2017,05,26,04,25,9.70
2017,05,26,04,26,9.70
2017,05,26,04,27,9.70
2017,05,26,04,28,9.70
2017,05,26,04,29,9.70
2017,05,26,04,30,9.70
2017,05,26,04,31,9.80
2017,05,26,04,32,9.80
2017,05,26,04,33,9.80
2017,05,26,04,34,9.80
2017,05,26,04,35,9.80
2017,05,26,04,36,9.80
2017,05,26,04,37,9.80
2017,05,26,04,38,9.80
2017,05,26,04,39,9.80
2017,05,26,04,40,9.80
2017,05,26,04,41,9.80
2017,05,26,04,42,9.80
2017,05,26,04,43,9.80
2017,05,26,04,44,9.80
2017,05,26,04,45,9.80
2017,05,26,04,46,9.80
2017,05,26,04,47,9.80
2017,05,26,04,48,9.80
2017,05,26,04,49,9.80
2017,05,26,04,50,9.80
2017,05,26,04,51,9.80
2017,05,26,04,52,9.80
2017,05,26,04,53,9.80
2017,05,26,04,54,9.80
2017,05,26,04,55,9.80
2017,05,26,04,56,9.80
2017,05,26,04,57,9.70
2017,05,26,04,58,9.70
2017,05,26,04,59,9.70
2017,05,26,05,00,9.70
2017,05,26,05,01,9.70
2017,05,26,05,02,9.70
2017,05,26,05,03,9.70
2017,05,26,05,04,9.70
2017,05,26,05,05,9.70
2017,05,26,05,06,9.70
2017,05,26,05,07,9.70
2017,05,26,05,08,9.70
2017,05,26,05,09,9.60
2017,05,26,05,10,9.60
2017,05,26,05,11,9.60
2017,05,26,05,12,9.60
2017,05,26,05,13,9.60
2017,05,26,05,14,9.60
2017,05,26,05,15,9.50
2017,05,26,05,16,9.50
2017,05,26,05,17,9.50
2017,05,26,05,18,9.50
2017,05,26,05,19,9.50
2017,05,26,05,20,9.40
2017,05,26,05,21,9.40
2017,05,26,05,22,9.40
2017,05,26,05,23,9.40
2017,05,26,05,24,9.40
2017,05,26,05,25,9.40
2017,05,26,05,26,9.30
2017,05,26,05,27,9.30
2017,05,26,05,28,9.30
2017,05,26,05,29,9.30
2017,05,26,05,30,9.30
2017,05,26,05,31,9.30
2017,05,26,05,32,9.30
2017,05,26,05,33,9.30
2017,05,26,05,34,9.20
2017,05,26,05,35,9.20
2017,05,26,05,36,9.20
2017,05,26,05,37,9.20
2017,05,26,05,38,9.20
2017,05,26,05,39,9.20
2017,05,26,05,40,9.20
2017,05,26,05,41,9.20
2017,05,26,05,42,9.20
2017,05,26,05,43,9.20
2017,05,26,05,44,9.10
2017,05,26,05,45,9.10
2017,05,26,05,46,9.10
2017,05,26,05,47,9.10
2017,05,26,05,48,9.10
2017,05,26,05,49,9.10
2017,05,26,05,50,9.10
2017,05,26,05,51,9.10
2017,05,26,05,52,9.10
2017,05,26,05,53,9.10
2017,05,26,05,54,9.10
2017,05,26,05,55,9.10
2017,05,26,05,56,9.10
2017,05,26,05,57,9.10
2017,05,26,05,58,9.10
2017,05,26,05,59,9.00
2017,05,26,06,00,9.00
2017,05,26,06,01,9.00
2017,05,26,06,02,9.00
2017,05,26,06,03,9.00
2017,05,26,06,04,9.00
2017,05,26,06,05,9.00
2017,05,26,06,06,8.90
2017,05,26,06,07,8.90
2017,05,26,06,08,8.90
2017,05,26,06,09,8.90
2017,05,26,06,10,8.90
2017,05,26,06,11,8.90
2017,05,26,06,12,8.90
2017,05,26,06,13,8.80
2017,05,26,06,14,8.80
2017,05,26,06,15,8.80
2017,05,26,06,16,8.80
2017,05,26,06,17,8.80
2017,05,26,06,18,8.80
2017,05,26,06,19,8.80
2017,05,26,06,20,8.80
2017,05,26,06,21,8.80
2017,05,26,06,22,8.80
2017,05,26,06,23,8.80
2017,05,26,06,24,8.90
2017,05,26,06,25,8.90
2017,05,26,06,26,8.90
2017,05,26,06,27,8.90
2017,05,26,06,28,8.90
2017,05,26,06,29,8.90
2017,05,26,06,30,8.90
2017,05,26,06,31,9.00
2017,05,26,06,32,9.00
2017,05,26,06,33,9.00
2017,05,26,06,34,9.00
2017,05,26,06,35,9.10
2017,05,26,06,36,9.10
2017,05,26,06,37,9.20
2017,05,26,06,38,9.30
2017,05,26,06,39,9.40
2017,05,26,06,40,9.50
2017,05,26,06,41,9.60
2017,05,26,06,42,9.70
2017,05,26,06,43,9.70
2017,05,26,06,44,9.80
2017,05,26,06,45,9.90
2017,05,26,06,46,10.00
2017,05,26,06,47,10.20
2017,05,26,06,48,10.30
2017,05,26,06,49,10.40
2017,05,26,06,50,10.50
2017,05,26,06,51,10.70
2017,05,26,06,52,10.80
2017,05,26,06,53,11.00
2017,05,26,06,54,11.10
2017,05,26,06,55,11.20
2017,05,26,06,56,11.30
2017,05,26,06,57,11.40
2017,05,26,06,58,11.50
2017,05,26,06,59,11.60
2017,05,26,07,00,11.70
2017,05,26,07,01,11.80
2017,05,26,07,02,11.90
2017,05,26,07,03,11.90
2017,05,26,07,04,12.00
2017,05,26,07,05,12.10
2017,05,26,07,06,12.20
2017,05,26,07,07,12.30
2017,05,26,07,08,12.40
2017,05,26,07,09,12.50
2017,05,26,07,10,12.60
2017,05,26,07,11,12.70
2017,05,26,07,12,12.80
2017,05,26,07,13,12.90
2017,05,26,07,14,13.00
2017,05,26,07,15,13.00
2017,05,26,07,16,13.10
2017,05,26,07,17,13.20
2017,05,26,07,18,13.30
2017,05,26,07,19,13.40
2017,05,26,07,20,13.50
2017,05,26,07,21,13.60
2017,05,26,07,22,13.70
2017,05,26,07,23,13.70
2017,05,26,07,24,13.80
2017,05,26,07,25,13.80
2017,05,26,07,26,14.00
2017,05,26,07,27,14.10
2017,05,26,07,28,14.20
2017,05,26,07,29,14.30
2017,05,26,07,30,14.40
2017,05,26,07,31,14.50
2017,05,26,07,32,14.60
2017,05,26,07,33,14.70
2017,05,26,07,34,14.80
2017,05,26,07,35,15.00
2017,05,26,07,36,15.10
2017,05,26,07,37,15.10
2017,05,26,07,38,15.30
2017,05,26,07,39,15.40
2017,05,26,07,40,15.40
2017,05,26,07,41,15.50
2017,05,26,07,42,15.60
2017,05,26,07,43,15.70
2017,05,26,07,44,15.70
2017,05,26,07,45,15.80
2017,05,26,07,46,15.80
2017,05,26,07,47,15.80
2017,05,26,07,48,15.80
2017,05,26,07,49,15.80
2017,05,26,07,50,15.80
2017,05,26,07,51,15.80
2017,05,26,07,52,15.80
2017,05,26,07,53,15.70
2017,05,26,07,54,15.70
2017,05,26,07,55,15.70
2017,05,26,07,56,15.60
2017,05,26,07,57,15.70
2017,05,26,07,58,15.70
2017,05,26,07,59,15.70
2017,05,26,08,00,15.70
2017,05,26,08,01,15.70
2017,05,26,08,02,15.70
2017,05,26,08,03,15.70
2017,05,26,08,04,15.70
2017,05,26,08,05,15.70
2017,05,26,08,06,15.80
2017,05,26,08,07,15.80
2017,05,26,08,08,15.80
2017,05,26,08,09,15.80
2017,05,26,08,10,15.80
2017,05,26,08,11,15.90
2017,05,26,08,12,15.90
2017,05,26,08,13,16.00
2017,05,26,08,14,16.10
2017,05,26,08,15,16.20
2017,05,26,08,16,16.30
2017,05,26,08,17,16.30
2017,05,26,08,18,16.40
2017,05,26,08,19,16.40
2017,05,26,08,20,16.40
2017,05,26,08,21,16.50
2017,05,26,08,22,16.50
2017,05,26,08,23,16.60
2017,05,26,08,24,16.70
2017,05,26,08,25,16.90
2017,05,26,08,26,17.10
2017,05,26,08,27,17.20
2017,05,26,08,28,17.40
2017,05,26,08,29,17.50
2017,05,26,08,30,17.60
2017,05,26,08,31,17.70
2017,05,26,08,32,17.80
2017,05,26,08,33,17.80
2017,05,26,08,34,17.80
2017,05,26,08,35,17.80
2017,05,26,08,36,17.90
2017,05,26,08,37,18.00
2017,05,26,08,38,18.00
2017,05,26,08,39,18.10
2017,05,26,08,40,18.10
2017,05,26,08,41,18.10
2017,05,26,08,42,18.20
2017,05,26,08,43,18.30
2017,05,26,08,44,18.50
2017,05,26,08,45,18.60
2017,05,26,08,46,18.80
2017,05,26,08,47,18.80
2017,05,26,08,48,18.90
2017,05,26,08,49,19.00
2017,05,26,08,50,19.10
2017,05,26,08,51,19.10
2017,05,26,08,52,19.00
2017,05,26,08,53,18.70
2017,05,26,08,54,18.50
2017,05,26,08,55,18.40
2017,05,26,08,56,18.30
2017,05,26,08,57,18.20
2017,05,26,08,58,18.10
2017,05,26,08,59,18.00
2017,05,26,09,00,18.00
2017,05,26,09,01,17.90
2017,05,26,09,02,17.90
2017,05,26,09,03,17.90
2017,05,26,09,04,17.90
2017,05,26,09,05,18.00
2017,05,26,09,06,18.00
2017,05,26,09,07,18.10
2017,05,26,09,08,18.10
2017,05,26,09,09,18.20
2017,05,26,09,10,18.20
2017,05,26,09,11,18.30
2017,05,26,09,12,18.40
2017,05,26,09,13,18.50
2017,05,26,09,14,18.60
2017,05,26,09,15,18.70
2017,05,26,09,16,18.80
2017,05,26,09,17,18.80
2017,05,26,09,18,18.90
2017,05,26,09,19,18.90
2017,05,26,09,20,18.90
2017,05,26,09,21,18.90
2017,05,26,09,22,18.80
2017,05,26,09,23,18.80
2017,05,26,09,24,18.80
2017,05,26,09,25,18.80
2017,05,26,09,26,18.80
2017,05,26,09,27,18.80
2017,05,26,09,28,18.80
2017,05,26,09,29,18.80
2017,05,26,09,30,18.80
2017,05,26,09,31,18.90
2017,05,26,09,32,18.90
2017,05,26,09,33,18.90
2017,05,26,09,34,19.00
2017,05,26,09,35,19.00
2017,05,26,09,36,19.10
2017,05,26,09,37,19.10
2017,05,26,09,38,19.10
2017,05,26,09,39,19.20
2017,05,26,09,40,19.20
2017,05,26,09,41,19.20
2017,05,26,09,42,19.20
2017,05,26,09,43,19.20
2017,05,26,09,44,19.20
2017,05,26,09,45,19.30
2017,05,26,09,46,19.40
2017,05,26,09,47,19.40
2017,05,26,09,48,19.40
2017,05,26,09,49,19.40
2017,05,26,09,50,19.40
2017,05,26,09,51,19.30
2017,05,26,09,52,19.30
2017,05,26,09,53,19.30
2017,05,26,09,54,19.30
2017,05,26,09,55,19.30
2017,05,26,09,56,19.40
2017,05,26,09,57,19.40
2017,05,26,09,58,19.40
2017,05,26,09,59,19.40
2017,05,26,10,00,19.40
2017,05,26,10,01,19.40
2017,05,26,10,02,19.50
2017,05,26,10,03,19.60
2017,05,26,10,04,19.60
2017,05,26,10,05,19.70
2017,05,26,10,06,19.80
2017,05,26,10,07,19.90
2017,05,26,10,08,20.10
2017,05,26,10,09,20.20
2017,05,26,10,10,20.30
2017,05,26,10,11,20.40
2017,05,26,10,12,20.60
2017,05,26,10,13,20.70
2017,05,26,10,14,20.80
2017,05,26,10,15,20.80
2017,05,26,10,16,20.90
2017,05,26,10,17,20.90
2017,05,26,10,18,20.90
2017,05,26,10,19,20.90
2017,05,26,10,20,20.90
2017,05,26,10,21,21.00
2017,05,26,10,22,21.00
2017,05,26,10,23,21.00
2017,05,26,10,24,21.00
2017,05,26,10,25,20.90
2017,05,26,10,26,20.80
2017,05,26,10,27,20.90
2017,05,26,10,28,20.90
2017,05,26,10,29,20.90
2017,05,26,10,30,20.80
2017,05,26,10,31,20.70
2017,05,26,10,32,20.70
2017,05,26,10,33,20.60
2017,05,26,10,34,20.60
2017,05,26,10,35,20.70
2017,05,26,10,36,20.60
2017,05,26,10,37,20.60
2017,05,26,10,38,20.60
2017,05,26,10,39,20.50
2017,05,26,10,40,20.50
2017,05,26,10,41,20.40
2017,05,26,10,42,20.40
2017,05,26,10,43,20.40
2017,05,26,10,44,20.30
2017,05,26,10,45,20.40
2017,05,26,10,46,20.30
2017,05,26,10,47,20.30
2017,05,26,10,48,20.30
2017,05,26,10,49,20.20
2017,05,26,10,50,20.20
2017,05,26,10,51,20.20
2017,05,26,10,52,20.30
2017,05,26,10,53,20.20
2017,05,26,10,54,20.20
2017,05,26,10,55,20.20
2017,05,26,10,56,20.30
2017,05,26,10,57,20.30
2017,05,26,10,58,20.30
2017,05,26,10,59,20.30
2017,05,26,11,00,20.30
2017,05,26,11,01,20.30
2017,05,26,11,02,20.20
2017,05,26,11,03,20.10
2017,05,26,11,04,20.10
2017,05,26,11,05,20.20
2017,05,26,11,06,20.30
2017,05,26,11,07,20.30
2017,05,26,11,08,20.30
2017,05,26,11,09,20.20
2017,05,26,11,10,20.30
2017,05,26,11,11,20.40
2017,05,26,11,12,20.50
2017,05,26,11,13,20.70
2017,05,26,11,14,20.70
2017,05,26,11,15,20.60
2017,05,26,11,16,20.50
2017,05,26,11,17,20.40
2017,05,26,11,18,20.40
2017,05,26,11,19,20.40
2017,05,26,11,20,20.30
2017,05,26,11,21,20.40
2017,05,26,11,22,20.40
2017,05,26,11,23,20.50
2017,05,26,11,24,20.60
2017,05,26,11,25,20.80
2017,05,26,11,26,20.90
2017,05,26,11,27,21.00
2017,05,26,11,28,21.00
2017,05,26,11,29,21.00
2017,05,26,11,30,21.10
2017,05,26,11,31,21.10
2017,05,26,11,32,21.20
2017,05,26,11,33,21.30
2017,05,26,11,34,21.30
2017,05,26,11,35,21.30
2017,05,26,11,36,21.40
2017,05,26,11,37,21.50
2017,05,26,11,38,21.50
2017,05,26,11,39,21.40
2017,05,26,11,40,21.30
2017,05,26,11,41,21.20
2017,05,26,11,42,21.20
2017,05,26,11,43,21.10
2017,05,26,11,44,21.10
2017,05,26,11,45,21.20
2017,05,26,11,46,21.30
2017,05,26,11,47,21.40
2017,05,26,11,48,21.40
2017,05,26,11,49,21.40
2017,05,26,11,50,21.50
2017,05,26,11,51,21.60
2017,05,26,11,52,21.60
2017,05,26,11,53,21.50
2017,05,26,11,54,21.60
2017,05,26,11,55,21.70
2017,05,26,11,56,21.80
2017,05,26,11,57,21.80
2017,05,26,11,58,21.80
2017,05,26,11,59,21.80
2017,05,26,12,00,21.80
2017,05,26,12,01,21.90
2017,05,26,12,02,21.90
2017,05,26,12,03,21.90
2017,05,26,12,04,21.80
2017,05,26,12,05,21.80
2017,05,26,12,06,21.90
2017,05,26,12,07,22.00
2017,05,26,12,08,22.10
2017,05,26,12,09,22.00
2017,05,26,12,10,22.10
2017,05,26,12,11,22.00
2017,05,26,12,12,22.10
2017,05,26,12,13,22.00
2017,05,26,12,14,21.90
2017,05,26,12,15,21.90
2017,05,26,12,16,22.00
2017,05,26,12,17,22.10
2017,05,26,12,18,22.20
2017,05,26,12,19,22.20
2017,05,26,12,20,22.10
2017,05,26,12,21,22.00
2017,05,26,12,22,21.90
2017,05,26,12,23,21.80
2017,05,26,12,24,21.70
2017,05,26,12,25,21.80
2017,05,26,12,26,21.80
2017,05,26,12,27,21.80
2017,05,26,12,28,21.80
2017,05,26,12,29,21.70
2017,05,26,12,30,21.70
2017,05,26,12,31,21.80
2017,05,26,12,32,21.90
2017,05,26,12,33,21.90
2017,05,26,12,34,21.90
2017,05,26,12,35,21.90
2017,05,26,12,36,21.80
2017,05,26,12,37,21.80
2017,05,26,12,38,21.80
2017,05,26,12,39,21.70
2017,05,26,12,40,21.60
2017,05,26,12,41,21.60
2017,05,26,12,42,21.60
2017,05,26,12,43,21.70
2017,05,26,12,44,21.80
2017,05,26,12,45,21.80
2017,05,26,12,46,21.80
2017,05,26,12,47,21.80
2017,05,26,12,48,21.80
2017,05,26,12,49,21.90
2017,05,26,12,50,22.00
2017,05,26,12,51,22.10
2017,05,26,12,52,22.20
2017,05,26,12,53,22.10
2017,05,26,12,54,22.10
2017,05,26,12,55,22.10
2017,05,26,12,56,22.10
2017,05,26,12,57,22.00
2017,05,26,12,58,22.00
2017,05,26,12,59,22.10
2017,05,26,13,00,22.10
2017,05,26,13,01,22.10
2017,05,26,13,02,22.10
2017,05,26,13,03,22.00
2017,05,26,13,04,22.00
2017,05,26,13,05,22.10
2017,05,26,13,06,22.20
2017,05,26,13,07,22.20
2017,05,26,13,08,22.00
2017,05,26,13,09,21.90
2017,05,26,13,10,21.90
2017,05,26,13,11,22.00
2017,05,26,13,12,22.00
2017,05,26,13,13,22.00
2017,05,26,13,14,21.90
2017,05,26,13,15,21.80
2017,05,26,13,16,21.80
2017,05,26,13,17,21.80
2017,05,26,13,18,21.90
2017,05,26,13,19,21.90
2017,05,26,13,20,21.90
2017,05,26,13,21,22.00
2017,05,26,13,22,22.10
2017,05,26,13,23,22.20
2017,05,26,13,24,22.30
2017,05,26,13,25,22.40
2017,05,26,13,26,22.40
2017,05,26,13,27,22.50
2017,05,26,13,28,22.60
2017,05,26,13,29,22.70
2017,05,26,13,30,22.80
2017,05,26,13,31,22.90
2017,05,26,13,32,22.90
2017,05,26,13,33,22.80
2017,05,26,13,34,22.60
2017,05,26,13,35,22.50
2017,05,26,13,36,22.40
2017,05,26,13,37,22.40
2017,05,26,13,38,22.50
2017,05,26,13,39,22.50
2017,05,26,13,40,22.60
2017,05,26,13,41,22.70
2017,05,26,13,42,22.80
2017,05,26,13,43,22.90
2017,05,26,13,44,22.90
2017,05,26,13,45,22.80
2017,05,26,13,46,22.70
2017,05,26,13,47,22.70
2017,05,26,13,48,22.60
2017,05,26,13,49,22.50
2017,05,26,13,50,22.50
2017,05,26,13,51,22.60
2017,05,26,13,52,22.70
2017,05,26,13,53,22.70
2017,05,26,13,54,22.60
2017,05,26,13,55,22.60
2017,05,26,13,56,22.50
2017,05,26,13,57,22.50
2017,05,26,13,58,22.50
2017,05,26,13,59,22.60
2017,05,26,14,00,22.70
2017,05,26,14,01,22.80
2017,05,26,14,02,23.00
2017,05,26,14,03,23.10
2017,05,26,14,04,23.30
2017,05,26,14,05,23.30
2017,05,26,14,06,23.30
2017,05,26,14,07,23.30
2017,05,26,14,08,23.30
2017,05,26,14,09,23.20
2017,05,26,14,10,23.10
2017,05,26,14,11,23.00
2017,05,26,14,12,23.00
2017,05,26,14,13,22.90
2017,05,26,14,14,23.00
2017,05,26,14,15,23.10
2017,05,26,14,16,23.20
2017,05,26,14,17,23.30
2017,05,26,14,18,23.20
2017,05,26,14,19,23.20
2017,05,26,14,20,23.20
2017,05,26,14,21,23.20
2017,05,26,14,22,23.20
2017,05,26,14,23,23.10
2017,05,26,14,24,23.10
2017,05,26,14,25,23.20
2017,05,26,14,26,23.10
2017,05,26,14,27,23.10
2017,05,26,14,28,23.10
2017,05,26,14,29,23.10
2017,05,26,14,30,23.20
2017,05,26,14,31,23.20
2017,05,26,14,32,23.20
2017,05,26,14,33,23.20
2017,05,26,14,34,23.20
2017,05,26,14,35,23.20
2017,05,26,14,36,23.20
2017,05,26,14,37,23.20
2017,05,26,14,38,23.20
2017,05,26,14,39,23.20
2017,05,26,14,40,23.20
2017,05,26,14,41,23.20
2017,05,26,14,42,23.20
2017,05,26,14,43,23.30
2017,05,26,14,44,23.40
2017,05,26,14,45,23.50
2017,05,26,14,46,23.60
2017,05,26,14,47,23.50
2017,05,26,14,48,23.50
2017,05,26,14,49,23.50
2017,05,26,14,50,23.60
2017,05,26,14,51,23.70
2017,05,26,14,52,23.70
2017,05,26,14,53,23.70
2017,05,26,14,54,23.70
2017,05,26,14,55,23.70
2017,05,26,14,56,23.70
2017,05,26,14,57,23.70
2017,05,26,14,58,23.60
2017,05,26,14,59,23.60
2017,05,26,15,00,23.60
2017,05,26,15,01,23.60
2017,05,26,15,02,23.60
2017,05,26,15,03,23.60
2017,05,26,15,04,23.60
2017,05,26,15,05,23.60
2017,05,26,15,06,23.50
2017,05,26,15,07,23.40
2017,05,26,15,08,23.40
2017,05,26,15,09,23.40
2017,05,26,15,10,23.40
2017,05,26,15,11,23.50
2017,05,26,15,12,23.60
2017,05,26,15,13,23.70
2017,05,26,15,14,23.70
2017,05,26,15,15,23.70
2017,05,26,15,16,23.80
2017,05,26,15,17,23.90
2017,05,26,15,18,24.00
2017,05,26,15,19,24.10
2017,05,26,15,20,24.10
2017,05,26,15,21,24.10
2017,05,26,15,22,24.10
2017,05,26,15,23,24.10
2017,05,26,15,24,24.20
2017,05,26,15,25,24.20
2017,05,26,15,26,24.20
2017,05,26,15,27,24.10
2017,05,26,15,28,24.20
2017,05,26,15,29,24.30
2017,05,26,15,30,24.30
2017,05,26,15,31,24.40
2017,05,26,15,32,24.50
2017,05,26,15,33,24.40
2017,05,26,15,34,24.40
2017,05,26,15,35,24.30
2017,05,26,15,36,24.30
2017,05,26,15,37,24.30
2017,05,26,15,38,24.30
2017,05,26,15,39,24.40
2017,05,26,15,40,24.50
2017,05,26,15,41,24.50
2017,05,26,15,42,24.40
2017,05,26,15,43,24.40
2017,05,26,15,44,24.40
2017,05,26,15,45,24.30
2017,05,26,15,46,24.30
2017,05,26,15,47,24.40
2017,05,26,15,48,24.50
2017,05,26,15,49,24.70
2017,05,26,15,50,24.80
2017,05,26,15,51,25.00
2017,05,26,15,52,24.90
2017,05,26,15,53,25.00
2017,05,26,15,54,25.00
2017,05,26,15,55,25.00
2017,05,26,15,56,24.90
2017,05,26,15,57,24.90
2017,05,26,15,58,24.90
2017,05,26,15,59,24.90
2017,05,26,16,00,24.90
2017,05,26,16,01,25.00
2017,05,26,16,02,25.10
2017,05,26,16,03,25.20
2017,05,26,16,04,25.40
2017,05,26,16,05,25.40
2017,05,26,16,06,25.40
2017,05,26,16,07,25.50
2017,05,26,16,08,25.40
2017,05,26,16,09,25.40
2017,05,26,16,10,25.40
2017,05,26,16,11,25.40
2017,05,26,16,12,25.50
2017,05,26,16,13,25.60
2017,05,26,16,14,25.70
2017,05,26,16,15,25.80
2017,05,26,16,16,25.80
2017,05,26,16,17,25.90
2017,05,26,16,18,25.90
2017,05,26,16,19,25.80
2017,05,26,16,20,25.80
2017,05,26,16,21,25.80
2017,05,26,16,22,25.70
2017,05,26,16,23,25.70
2017,05,26,16,24,25.60
2017,05,26,16,25,25.50
2017,05,26,16,26,25.50
2017,05,26,16,27,25.40
2017,05,26,16,28,25.40
2017,05,26,16,29,25.40
2017,05,26,16,30,25.50
2017,05,26,16,31,25.50
2017,05,26,16,32,25.50
2017,05,26,16,33,25.40
2017,05,26,16,34,25.30
2017,05,26,16,35,25.30
2017,05,26,16,36,25.30
2017,05,26,16,37,25.30
2017,05,26,16,38,25.40
2017,05,26,16,39,25.40
2017,05,26,16,40,25.40
2017,05,26,16,41,25.40
2017,05,26,16,42,25.50
2017,05,26,16,43,25.60
2017,05,26,16,44,25.60
2017,05,26,16,45,25.60
2017,05,26,16,46,25.60
2017,05,26,16,47,25.60
2017,05,26,16,48,25.60
2017,05,26,16,49,25.50
2017,05,26,16,50,25.50
2017,05,26,16,51,25.50
2017,05,26,16,52,25.70
2017,05,26,16,53,25.80
2017,05,26,16,54,25.90
2017,05,26,16,55,26.00
2017,05,26,16,56,26.10
2017,05,26,16,57,26.10
2017,05,26,16,58,26.20
2017,05,26,16,59,26.30
2017,05,26,17,00,26.40
2017,05,26,17,01,26.40
2017,05,26,17,02,26.30
2017,05,26,17,03,26.30
2017,05,26,17,04,26.20
2017,05,26,17,05,26.20
2017,05,26,17,06,26.30
2017,05,26,17,07,26.30
2017,05,26,17,08,26.40
2017,05,26,17,09,26.40
2017,05,26,17,10,26.40
2017,05,26,17,11,26.40
2017,05,26,17,12,26.40
2017,05,26,17,13,26.40
2017,05,26,17,14,26.20
2017,05,26,17,15,26.00
2017,05,26,17,16,26.00
2017,05,26,17,17,25.90
2017,05,26,17,18,25.80
2017,05,26,17,19,25.80
2017,05,26,17,20,25.80
2017,05,26,17,21,25.70
2017,05,26,17,22,25.70
2017,05,26,17,23,25.60
2017,05,26,17,24,25.60
2017,05,26,17,25,25.60
2017,05,26,17,26,25.50
2017,05,26,17,27,25.40
2017,05,26,17,28,25.30